Regional Weather Roundup
Issued by NWS

Home | Current Version | Previous Version | Graphics & Text | Print | Product List | Glossary On
Versions: 1 2 3 4 5 6 7 8 9 10 11 12 13 14 15 16 17 18 19 20 21 22 23 24 25 26 27 28 29 30 31 32 33 34 35 36 37 38 39 40 41 42 43 44 45 46 47 48 49 50
000
ASUS43 KOAX 180510
RWRNE

WEATHER ROUNDUP FOR NEBRASKA
NATIONAL WEATHER SERVICE OMAHA NE
1200 AM CDT THU SEP 18 2014

NOTES: SATELLITE DATA IS BEING USED TO AUGMENT CLOUD COVER ABOVE
       12000 FEET.
       "FAIR" INDICATES FEW OR NO CLOUDS BELOW 12,000 FEET WITH NO
       SIGNIFICANT WEATHER AND/OR OBSTRUCTIONS TO VISIBILITY.

  * THESE STATIONS DO NOT REPORT WEATHER SUCH AS RAIN...SNOW OR FOG.

NEZ001>004-019>022-054>056-180600-
NEBRASKA PANHANDLE

CITY           SKY/WX    TMP DP  RH WIND       PRES   REMARKS
SCOTTSBLUFF    CLEAR     58  49  72 E5        29.97S
ALLIANCE       CLEAR     65  56  72 S14       29.97S
CHADRON        CLEAR     63  52  67 N9        29.94R
KIMBALL        CLEAR     57  44  61 SW7       30.02S
SIDNEY         PTCLDY    63  49  60 SE6       30.02R
$$

NEZ057>060-069>072-079>082-180600-
SOUTHWEST NEBRASKA

CITY           SKY/WX    TMP DP  RH WIND       PRES   REMARKS
NORTH PLATTE   PTCLDY    60  58  92 E7        29.96S
IMPERIAL       PTCLDY    66  60  81 SE7       29.97R
LEXINGTON      CLEAR     64  62  94 SE6       29.96F
MCCOOK         PTCLDY    65  61  87 E6        29.96R
OGALLALA       MOCLDY    69  62  79 E7        29.97R
$$

NEZ005>010-023>029-035>040-094-180600-
NORTH CENTRAL NEBRASKA

CITY           SKY/WX    TMP DP  RH WIND       PRES   REMARKS
VALENTINE      CLEAR     61  55  81 NE10      29.99R
AINSWORTH      CLEAR     60  55  84 E8        29.98S
BROKEN BOW     CLEAR     62  59  90 SE5       29.96F
O`NEILL        CLEAR     63  57  82 E9        29.98S
ORD            PTCLDY    62  60  93 E5        29.95S
THEDFORD       CLEAR     65  59  82 SE5       29.97R
$$

NEZ041-046>049-061>064-073>077-083>087-180600-
SOUTH CENTRAL NEBRASKA

CITY           SKY/WX    TMP DP  RH WIND       PRES   REMARKS
GRAND ISLAND   CLEAR     61  58  90 E6        29.97R
AURORA         CLEAR     61  60  96 E5        29.97S
HASTINGS       PTCLDY    66  59  78 E10       29.95S
HEBRON         PTCLDY    63  61  92 E6        29.93F
HOLDREGE       PTCLDY    58  56  94 CALM      29.96S FOG
KEARNEY *      CLEAR     61  57  88 NE5       29.97R
YORK           CLEAR     59  59 100 E5        29.97S
$$

NEZ011>018-030>034-042>045-180600-
NORTHEAST NEBRASKA

CITY           SKY/WX    TMP DP  RH WIND       PRES   REMARKS
NORFOLK        PTCLDY    61  59  93 CALM      29.97S
ALBION         PTCLDY    64  59  84 E3        29.97S
BLAIR          PTCLDY    64  59  85 E7        29.97S
COLUMBUS *     PTCLDY    61  57  88 E5        29.98S
FREMONT        PTCLDY    64  60  89 CALM      29.98R
TEKAMAH        CLEAR     59  57  93 S3        29.98R
WAYNE          CLEAR     53  52  96 CALM      29.98R
$$

NEZ050>053-065>068-078-088>093-180600-
SOUTHEAST NEBRASKA

CITY           SKY/WX    TMP DP  RH WIND       PRES   REMARKS
LINCOLN        PTCLDY    66  60  81 E5        29.97S
OMAHA EPPLEY   PTCLDY    66  58  75 SE10      29.98R
BEATRICE       PTCLDY    64  61  92 CALM      29.96S
FALLS CITY     PTCLDY    64  62  93 SE3       29.96R
NEBRASKA CITY  MOCLDY    66  57  74 E5        29.97S
PLATTSMOUTH    PTCLDY    64  59  86 E7        29.98R
$$

NEZ044-045-051>053-067-180600-
OMAHA AREA

CITY           SKY/WX    TMP DP  RH WIND       PRES   REMARKS
OMAHA EPPLEY   PTCLDY    66  58  75 SE10      29.98R
BLAIR          PTCLDY    64  59  85 E7        29.97S
FREMONT        PTCLDY    64  60  89 CALM      29.98R
MILLARD        PTCLDY    66  61  85 CALM      29.97R
OFFUTT AFB     MOCLDY    63  63  99 E7        29.97S
PLATTSMOUTH    PTCLDY    64  59  86 E7        29.98R
WAHOO          FAIR      61  58  88 CALM      29.97S
$$


USA.gov is the U.S. government's official web portal to all federal, state and local government web resources and services.